Tracking 19817 objects as of 19-Aug-2019
HD Live streaming from Space Station
objects crossing your sky now

LEMUR 2 LUCYBRYCE

Track LEMUR 2 LUCYBRYCE now!
10-day predictions
LEMUR 2 LUCYBRYCE is classified as:


NORAD ID: 42773
Int'l Code: 2017-036J
Perigee: 495.8 km
Apogee: 515.3 km
Inclination: 97.3 °
Period: 94.6 minutes
Semi major axis: 6876 km
RCS: Unknown
Launch date: June 23, 2017
Source: United States (US)
Launch site: SRIHARIKOTA (SRI)
aabbcc
Your satellite tracking list
Your tracking list is empty




NASA's NSSDC Master Catalog

Two Line Element Set (TLE):
1 42773U 17036J   19230.94391628 +.00000515 +00000-0 +25187-4 0  9995
2 42773 097.3494 287.2539 0014134 011.1320 349.0226 15.22468306119574
Source of the keplerian elements: AFSPC